[[{"header":{"parameterUnit":"m.s-1","parameterCategory":1,"la1":30.2992,"la2":30.254,"lo1":-89.0895,"lo2":-89.0443,"dy":0.0025,"dx":0.0025,"nx":19,"ny":19,"refTime":"2026-05-02T03:00:00:Z","depth":0,"parameterNumber":2,"parameterNumberName":"U-component_of_WINDS"},"data":[0,0,0,1.0564,1.0565,1.0632,1.0632,1.0699,1.07,0,0,0,0,0,0,0,0,0,0,0,1.0532,1.0532,1.0564,1.0565,1.0632,1.0632,1.0699,1.07,0,0,0,0,0,0,0,0,0,0,0,1.0532,1.0532,1.0532,1.0565,1.0632,1.0632,1.0699,1.0655,0,0,0,0,0,0,0,0,0,0,1.0594,1.0553,1.0532,1.0532,1.0565,1.0632,1.0632,1.0654,1.0658,1.0661,0,1.066,0,1.0681,1.0703,1.0703,0,0,0,1.0574,1.0549,1.0578,1.0532,1.0566,1.0632,1.0604,1.0656,1.0661,1.0667,1.0661,1.0664,1.0682,1.0703,1.0704,1.0688,1.0687,0,0,1.057,1.0538,1.0574,1.058,1.0568,1.0602,1.0606,1.066,1.0652,1.0661,1.0666,1.0683,1.0704,1.0704,1.0688,1.0688,0,0,0,1.0554,1.0535,1.0563,1.0577,1.059,1.0604,1.0609,1.0649,1.0661,1.0667,1.0684,1.0704,1.0705,1.0689,1.0688,1.0631,0,0,0,1.0552,1.0525,1.0561,1.0542,1.0589,1.0621,1.0596,1.0657,1.0664,1.0683,1.0704,1.0705,1.069,1.0688,1.0634,1.0609,0,0,0,1.0532,1.0523,1.0529,1.054,1.0567,1.062,1.0636,1.0659,1.0674,1.0703,1.0705,1.069,1.0689,1.0636,1.0614,1.0595,0,0,0,1.0501,1.0478,1.0527,1.0508,1.0567,1.0585,1.0636,1.0651,1.0669,1.0704,1.0689,1.0688,1.0637,1.0616,1.0597,1.0572,1.0559,0,0,1.0454,1.0472,1.0463,1.0509,1.0509,1.0577,1.057,1.0618,1.0651,1.0674,1.0674,1.0633,1.0614,1.0595,1.0498,1.0487,0,0,0,1.0437,1.043,1.0438,1.0453,1.0488,1.0516,1.0569,1.0586,1.0607,1.0656,1.0623,1.0613,1.0603,1.0592,1.0583,1.0576,1.0682,1.0682,1.0682,1.0324,1.0366,1.0355,1.0404,1.0419,1.0472,1.0488,1.0521,1.0561,1.0552,1.0558,1.0494,1.0481,1.0474,1.0466,1.055,1.055,1.0549,1.0549,1.0258,1.0255,1.0307,1.0314,1.0358,1.0365,1.0416,1.0443,1.0456,1.0493,1.0487,1.0523,1.0461,1.0456,1.0545,1.0546,1.0547,1.0547,1.0547,1.0188,1.0194,1.0215,1.0241,1.0256,1.0308,1.0317,1.0359,1.0398,1.0391,1.0402,1.0403,1.0408,1.0394,1.0394,1.0393,1.0393,1.0393,1.0393,1.0107,1.0133,1.0135,1.0169,1.0184,1.0209,1.0262,1.0278,1.0306,1.0335,1.0335,1.0374,1.0447,1.0464,1.039,1.039,1.0391,1.0391,1.0391,1.0023,1.0048,1.0051,1.0065,1.0109,1.0121,1.0173,1.0202,1.0221,1.0224,1.0265,1.0312,1.0333,1.034,1.0354,1.0256,1.0256,1.0256,1.0256,0.9962,0.9977,0.9989,1.0009,1.0034,1.0081,1.0083,1.0123,1.017,1.0184,1.0205,1.0227,1.0233,1.025,1.026,1.0273,1.0157,1.0157,1.0157,0.9913,0.9931,0.9924,0.9969,1.0006,1.0037,1.0039,1.0061,1.0119,1.0154,1.0196,1.02,1.0237,1.0247,1.0282,1.0296,1.0321,0,0]},{"header":{"parameterUnit":"m.s-1","parameterCategory":1,"la1":30.2992,"la2":30.254,"lo1":-89.0895,"lo2":-89.0443,"dy":0.0025,"dx":0.0025,"nx":19,"ny":19,"refTime":"2026-05-02T03:00:00:Z","depth":0,"parameterNumber":3,"parameterNumberName":"V-component_of_WINDS"},"data":[0,0,0,-1.04,-1.04,-1.0385,-1.0385,-1.0366,-1.0366,0,0,0,0,0,0,0,0,0,0,0,-1.0404,-1.0403,-1.04,-1.04,-1.0385,-1.0385,-1.0366,-1.0366,0,0,0,0,0,0,0,0,0,0,0,-1.0404,-1.0403,-1.0403,-1.04,-1.0385,-1.0385,-1.0367,-1.0378,0,0,0,0,0,0,0,0,0,0,-1.0392,-1.0394,-1.0403,-1.0403,-1.04,-1.0385,-1.0385,-1.0378,-1.0377,-1.0373,0,-1.0368,0,-1.0367,-1.0365,-1.0365,0,0,0,-1.0401,-1.0395,-1.0392,-1.0403,-1.0399,-1.0385,-1.0392,-1.0378,-1.0376,-1.0372,-1.0368,-1.0367,-1.0367,-1.0365,-1.0365,-1.0338,-1.0338,0,0,-1.0402,-1.04,-1.0393,-1.0391,-1.0392,-1.0392,-1.0391,-1.0377,-1.0373,-1.0368,-1.0367,-1.0366,-1.0365,-1.0365,-1.0338,-1.0338,0,0,0,-1.0403,-1.0401,-1.0398,-1.0392,-1.0389,-1.0392,-1.0391,-1.0374,-1.0373,-1.0367,-1.0366,-1.0365,-1.0364,-1.0338,-1.0338,-1.0329,0,0,0,-1.0404,-1.0402,-1.0398,-1.0398,-1.0389,-1.0381,-1.0388,-1.0374,-1.0372,-1.0366,-1.0365,-1.0364,-1.0338,-1.0338,-1.033,-1.0325,0,0,0,-1.0405,-1.0402,-1.0399,-1.0398,-1.0391,-1.0381,-1.0379,-1.0374,-1.0372,-1.0365,-1.0364,-1.0339,-1.0338,-1.033,-1.0326,-1.0319,0,0,0,-1.0406,-1.039,-1.0399,-1.0382,-1.0391,-1.0375,-1.0379,-1.0368,-1.036,-1.0365,-1.0338,-1.0338,-1.033,-1.0326,-1.0319,-1.0313,-1.031,0,0,-1.0386,-1.0388,-1.0378,-1.0386,-1.0368,-1.0377,-1.0359,-1.0353,-1.0354,-1.0344,-1.0343,-1.0329,-1.0326,-1.0319,-1.0292,-1.029,0,0,0,-1.0372,-1.0365,-1.036,-1.0353,-1.0349,-1.0346,-1.0344,-1.0342,-1.0334,-1.0348,-1.0325,-1.0322,-1.0318,-1.0316,-1.0313,-1.0311,-1.0336,-1.0336,-1.0336,-1.0341,-1.0343,-1.0328,-1.033,-1.0324,-1.0323,-1.0319,-1.0317,-1.032,-1.0315,-1.0312,-1.0295,-1.0291,-1.029,-1.0287,-1.0308,-1.0308,-1.0308,-1.0308,-1.0313,-1.0304,-1.0311,-1.0299,-1.0303,-1.0293,-1.0293,-1.0297,-1.029,-1.0297,-1.0293,-1.0302,-1.0287,-1.0285,-1.0307,-1.0307,-1.0307,-1.0307,-1.0308,-1.0293,-1.029,-1.0289,-1.0282,-1.0276,-1.0279,-1.0272,-1.0276,-1.0279,-1.0275,-1.0274,-1.0274,-1.0276,-1.0274,-1.0274,-1.0274,-1.0274,-1.0274,-1.0274,-1.0274,-1.0273,-1.0267,-1.0264,-1.0261,-1.0259,-1.026,-1.0259,-1.0258,-1.0261,-1.0261,-1.0266,-1.0285,-1.029,-1.0273,-1.0273,-1.0274,-1.0274,-1.0274,-1.0246,-1.0253,-1.0243,-1.0241,-1.0239,-1.0235,-1.024,-1.0237,-1.0236,-1.0234,-1.0241,-1.0253,-1.0256,-1.0258,-1.0262,-1.0239,-1.0239,-1.0239,-1.0239,-1.023,-1.0232,-1.0224,-1.0221,-1.0219,-1.0223,-1.0215,-1.0217,-1.022,-1.0221,-1.0225,-1.0231,-1.0232,-1.0234,-1.0236,-1.024,-1.0212,-1.0212,-1.0212,-1.0214,-1.0216,-1.0207,-1.021,-1.021,-1.021,-1.0203,-1.0201,-1.0206,-1.0211,-1.0221,-1.0223,-1.0232,-1.0235,-1.0239,-1.0243,-1.025,0,0]}]]